This is the latest recevied weather packets stored in our database for station/object K8MUD. If no packets are shown the sender has not sent any weather packets the latest 10 day(s).
| Time | Temp. | Humidity | Pressure | Rain* | Wind** | Luminosity | Snow |
|---|---|---|---|---|---|---|---|
| 1777580187 | 12.22° C | 47% | 1013 hPa | 0 mm | - | - | - |
| 1777579887 | 12.22° C | 47% | 1013.1 hPa | 0 mm | - | - | - |
| 1777579587 | 12.22° C | 48% | 1013.1 hPa | 0 mm | - | - | - |
| 1777579287 | 12.22° C | 48% | 1013.1 hPa | 0 mm | - | - | - |
| 1777578987 | 12.22° C | 44% | 1013.1 hPa | 0 mm | - | - | - |
| 1777578687 | 12.22° C | 47% | 1013.1 hPa | 0 mm | - | - | - |
| 1777578387 | 12.22° C | 47% | 1013.2 hPa | 0 mm | - | - | - |
| 1777578087 | 12.22° C | 47% | 1013.2 hPa | 0 mm | - | - | - |
| 1777577787 | 12.22° C | 47% | 1013.2 hPa | 0 mm | - | - | - |
| 1777577487 | 12.22° C | 47% | 1013.1 hPa | 0 mm | - | - | - |
| 1777577187 | 12.78° C | 44% | 1013.2 hPa | 0 mm | - | - | - |
| 1777576887 | 12.78° C | 45% | 1013.2 hPa | 0 mm | - | - | - |
| 1777576587 | 12.78° C | 44% | 1013.2 hPa | 0 mm | - | - | - |
| 1777576286 | 12.78° C | 44% | 1013.2 hPa | 0 mm | - | - | - |
| 1777575986 | 12.78° C | 44% | 1013.3 hPa | 0 mm | - | - | - |
| 1777575686 | 12.78° C | 43% | 1013.2 hPa | 0 mm | - | - | - |
| 1777575386 | 12.78° C | 44% | 1013.2 hPa | 0 mm | - | - | - |
| 1777575086 | 12.78° C | 43% | 1013.3 hPa | 0 mm | - | - | - |
| 1777574786 | 12.78° C | 43% | 1013.1 hPa | 0 mm | - | - | - |
| 1777574486 | 12.78° C | 44% | 1013.2 hPa | 0 mm | - | - | - |
| 1777574186 | 12.22° C | 44% | 1013.3 hPa | 0 mm | - | - | - |
| 1777573886 | 12.22° C | 46% | 1013.3 hPa | 0 mm | - | - | - |
| 1777573586 | 12.78° C | 46% | 1013.2 hPa | 0 mm | - | - | - |
| 1777573286 | 12.78° C | 45% | 1013.2 hPa | 0 mm | - | - | - |
| 1777572986 | 12.78° C | 47% | 1013.2 hPa | 0 mm | - | - | - |
* Rain latest hour (hover to see other rain measurements)
** Current wind speed in m/s (hover to see current wind gust speed)